Погода в Козине

Украина / Киевская область     50°12′58″N   30°39′32″E
темп.,
°C
ветер,
м/с
пор.,
м/с
влажн.,
%
обл.,
%
осадки,
мм/ч
давл.,
гПа
погр.,
м
8 мая, сб
сб800:00+11ююз2397100 1.1 100794
03:00+10юз3697100 1.3 1006227
06:00+10з3697100 1.3 1006233
09:00+10з5993100 2.4 1007522
12:00+6зсз6129092 1.2 1010764
15:00+10зсз10126952 1.6 10121537
18:00+7зсз6118562 0.4 1015994
21:00+6зсз510815 0.4 1017399
9 мая, вс
вс900:00+4зсз510823 0.0 1019385
03:00+3зсз49822 0.0 1021227
06:00+2з38860 0.0 1022194
09:00+8сз47660 0.0 1024697
12:00+12сз465092 0.0 10252007
15:00+13сз3546100 0.0 10251963
18:00+13с245096 0.0 10251714
21:00+8в226711 0.0 102714
10 мая, пн
пн1000:00+6ююв22735 0.0 102811
03:00+5ююв22770 0.0 102916
06:00+5ююв22795 0.0 103020
09:00+11юв33645 0.0 1030407
12:00+15юв33510 0.0 10301455
15:00+16вюв32465 0.0 10281578
18:00+16в32502 0.0 10271237
21:00+10вюв33705 0.0 102834
11 мая, вт
вт1100:00+8вюв22730 0.0 102815
03:00+7в22730 0.0 102810
06:00+6св22780 0.0 102723
09:00+12св46620 0.0 1027494
12:00+16св57470 0.0 10251106
15:00+18св56505 0.0 10231120
18:00+17св58645 0.0 10221153
21:00+13всв4108386 0.0 1022321
12 мая, ср
ср1200:00+11в35905 0.0 1021126
03:00+8всв22955 0.0 102038
06:00+7св2293100 0.0 101941
09:00+9всв3789100 0.1 1018337
12:00+14всв796798 0.6 10161596
15:00+13в8106992 1.2 10161391
18:00+11в7977100 0.4 1015929
21:00+7всв389527 0.6 1015201